Weather in Uvarovo

Russia / Tambov Oblast     51°58′59″N   42°15′39″E
temp.,
°C
wind,
m/s
gust,
m/s
humid.,
%
clouds,
%
prec.,
mm/h
press.,
hPa
HPBL,
m
7 march, sun
sun700:00−12wnw599312 0.0 1016178
03:00−14wnw47936 0.0 1017102
06:00−13wsw479415 0.0 1017102
09:00−10wsw599211 0.0 1016271
12:00−5sw7128667 0.0 1014873
15:00−3sw8147983 0.0 10091028
18:00−3sw81774100 0.0 10061064
21:00−3sw91877100 0.0 10031027
8 march, mon
mon800:00−2wsw101888100 0.4 10011005
03:00−4w6147890 0.7 1003420
06:00−7wsw5118383 0.0 1004256
09:00−4sw5108191 0.0 1004549
12:00−2wsw5892100 0.3 1004735
15:00−1w6983100 0.4 10041098
18:00−5w488643 0.1 1005142
21:00−8w348954 0.1 100787
9 march, tue
tue900:00−11wnw33930 0.0 100931
03:00−13wnw23900 0.0 101021
06:00−14nw339364 0.0 101137
09:00−12nw239353 0.0 1013132
12:00−9nw349043 0.0 1014336
15:00−8nw468970 0.0 1014515
18:00−12wnw469294 0.0 1015102
21:00−14nw469383 0.0 1018121
10 march, wed
wed1000:00−16nw47950 0.0 1019109
03:00−18nw46974 0.0 102087
06:00−20nw46970 0.0 102297
09:00−18nw58923 0.0 1024312
12:00−15nw468819 0.0 1025524
15:00−14nw468758 0.0 1026582
18:00−19wnw469360 0.0 1026108
21:00−21nnw349430 0.0 102849
11 march, thu
thu1100:00−22nnw23940 0.0 102924
03:00−23nnw22950 0.0 103120
06:00−24nnw12950 0.0 103120
09:00−20nw11880 0.0 103299
12:00−15wsw22760 0.0 1032291
15:00−14sw23780 0.0 1032315
18:00−17ssw22850 0.0 103120
21:00−18s33870 0.0 103221